Stündliche Wetter Bolshoe Aretovo

Heute, 20 Januar, Mittwoch

Zeit Temperatur Niederschläge Wind Luftdruck Luftfeuchtigkeit
00:00 -17°C° 0 mm 1 m/S 747 mmHg 97%
01:00 -17°C° 0 mm 1 m/S 747 mmHg 97%
02:00 -16°C° 0 mm 1 m/S 747 mmHg 99%
03:00 -16°C° 0 mm 1 m/S 747 mmHg 99%
04:00 -16°C° 0 mm 1 m/S 747 mmHg 99%
05:00 -17°C° 0 mm 1 m/S 747 mmHg 98%
06:00 -19°C° 0 mm 2 m/S 747 mmHg 98%
07:00 -19°C° 0 mm 2 m/S 747 mmHg 98%
08:00 -19°C° 0 mm 2 m/S 747 mmHg 97%
09:00 -18°C° 0 mm 2 m/S 748 mmHg 96%
10:00 -17°C° 0 mm 2 m/S 748 mmHg 94%
11:00 -16°C° 0 mm 2 m/S 748 mmHg 92%
12:00 -16°C° 0 mm 2 m/S 748 mmHg 92%
13:00 -15°C° 0 mm 2 m/S 747 mmHg 92%
14:00 -16°C° 0 mm 3 m/S 747 mmHg 91%
15:00 -17°C° 0 mm 3 m/S 747 mmHg 92%
16:00 -18°C° 0 mm 3 m/S 747 mmHg 94%
17:00 -18°C° 0 mm 3 m/S 747 mmHg 95%
18:00 -18°C° 0 mm 3 m/S 747 mmHg 93%
19:00 -19°C° 0 mm 4 m/S 746 mmHg 92%
20:00 -19°C° 0 mm 4 m/S 746 mmHg 91%
21:00 -18°C° 0 mm 4 m/S 746 mmHg 91%
22:00 -18°C° 0 mm 4 m/S 746 mmHg 90%
23:00 -18°C° 0 mm 5 m/S 745 mmHg 90%

Morgen, 21 Januar, Donnerstag

Zeit Temperatur Niederschläge Wind Luftdruck Luftfeuchtigkeit
00:00 -18°C° 0.1 mm 5 m/S 745 mmHg 91%
01:00 -17°C° 0.1 mm 5 m/S 744 mmHg 92%
02:00 -15°C° 0.1 mm 5 m/S 744 mmHg 93%
03:00 -15°C° 0.3 mm 5 m/S 743 mmHg 93%
04:00 -14°C° 0.3 mm 5 m/S 743 mmHg 93%
05:00 -14°C° 0.3 mm 5 m/S 742 mmHg 93%
06:00 -13°C° 0.3 mm 5 m/S 742 mmHg 93%
07:00 -13°C° 0.3 mm 5 m/S 742 mmHg 93%
08:00 -11°C° 0.3 mm 4 m/S 741 mmHg 93%
09:00 -11°C° 0.2 mm 4 m/S 741 mmHg 93%
10:00 -10°C° 0.2 mm 4 m/S 741 mmHg 92%
11:00 -9°C° 0.2 mm 4 m/S 741 mmHg 92%
12:00 -8°C° 0.2 mm 4 m/S 741 mmHg 93%
13:00 -5°C° 0.2 mm 4 m/S 741 mmHg 94%
14:00 -4°C° 0.2 mm 3 m/S 740 mmHg 95%
15:00 -4°C° 0.1 mm 3 m/S 740 mmHg 95%
16:00 -3°C° 0.1 mm 4 m/S 740 mmHg 95%
17:00 -2°C° 0.1 mm 4 m/S 740 mmHg 95%
18:00 -2°C° 0 mm 4 m/S 740 mmHg 95%
19:00 -2°C° 0 mm 4 m/S 740 mmHg 94%
20:00 -1°C° 0 mm 4 m/S 740 mmHg 94%
21:00 -1°C° 0 mm 4 m/S 740 mmHg 94%
22:00 -1°C° 0 mm 4 m/S 740 mmHg 95%
23:00 -1°C° 0 mm 4 m/S 740 mmHg 95%

übermorgen, 22 Januar, Freitag

Zeit Temperatur Niederschläge Wind Luftdruck Luftfeuchtigkeit
00:00 -1°C° 0 mm 4 m/S 740 mmHg 95%
01:00 -1°C° 0 mm 4 m/S 740 mmHg 95%
02:00 -1°C° 0 mm 4 m/S 740 mmHg 94%
03:00 -1°C° 0 mm 4 m/S 740 mmHg 94%
04:00 -1°C° 0 mm 4 m/S 739 mmHg 94%
05:00 -1°C° 0 mm 4 m/S 739 mmHg 94%
06:00 -2°C° 0 mm 4 m/S 739 mmHg 94%
07:00 -3°C° 0 mm 4 m/S 739 mmHg 94%
08:00 -4°C° 0 mm 4 m/S 739 mmHg 94%
09:00 -4°C° 0 mm 4 m/S 739 mmHg 94%
10:00 -3°C° 0 mm 4 m/S 739 mmHg 94%
11:00 -3°C° 0 mm 4 m/S 739 mmHg 94%
12:00 -2°C° 0 mm 4 m/S 739 mmHg 95%
13:00 -2°C° 0 mm 4 m/S 738 mmHg 97%
14:00 -1°C° 0 mm 4 m/S 738 mmHg 98%
15:00 -1°C° 0 mm 4 m/S 738 mmHg 98%
16:00 -1°C° 0 mm 4 m/S 737 mmHg 97%
17:00 -1°C° 0 mm 4 m/S 737 mmHg 97%
18:00 -1°C° 0 mm 4 m/S 737 mmHg 96%
19:00 -1°C° 0 mm 4 m/S 737 mmHg 96%
20:00 -1°C° 0 mm 4 m/S 737 mmHg 96%
21:00 -1°C° 0 mm 4 m/S 737 mmHg 96%
22:00 -1°C° 0 mm 4 m/S 737 mmHg 97%
23:00 -1°C° 0 mm 4 m/S 737 mmHg 97%

23 Januar, Samstag

Zeit Temperatur Niederschläge Wind Luftdruck Luftfeuchtigkeit
00:00 -1°C° 0 mm 4 m/S 737 mmHg 97%
01:00 -1°C° 0 mm 4 m/S 736 mmHg 97%
02:00 -1°C° 0 mm 4 m/S 736 mmHg 96%
03:00 -1°C° 0.2 mm 4 m/S 736 mmHg 96%
04:00 -1°C° 0.2 mm 4 m/S 736 mmHg 97%
05:00 -1°C° 0.2 mm 5 m/S 736 mmHg 97%
06:00 -1°C° 0.1 mm 4 m/S 736 mmHg 96%
07:00 -1°C° 0.1 mm 4 m/S 736 mmHg 95%
08:00 -2°C° 0.1 mm 4 m/S 737 mmHg 95%
09:00 -2°C° 0 mm 4 m/S 737 mmHg 95%
10:00 -2°C° 0 mm 4 m/S 737 mmHg 96%
11:00 -2°C° 0 mm 4 m/S 737 mmHg 96%
12:00 0°C° 0 mm 3 m/S 737 mmHg 97%
13:00 0°C° 0 mm 3 m/S 737 mmHg 98%
14:00 0°C° 0 mm 3 m/S 737 mmHg 98%
15:00 0°C° 0 mm 3 m/S 737 mmHg 98%
16:00 0°C° 0 mm 3 m/S 737 mmHg 98%
17:00 0°C° 0 mm 3 m/S 737 mmHg 98%
18:00 0°C° 0 mm 3 m/S 737 mmHg 97%
19:00 0°C° 0 mm 3 m/S 737 mmHg 97%
20:00 -1°C° 0 mm 4 m/S 737 mmHg 97%
21:00 -1°C° 0 mm 4 m/S 737 mmHg 97%
22:00 -1°C° 0 mm 4 m/S 737 mmHg 97%
23:00 -1°C° 0 mm 4 m/S 737 mmHg 97%

24 Januar, Sonntag

Zeit Temperatur Niederschläge Wind Luftdruck Luftfeuchtigkeit
00:00 -1°C° 0 mm 4 m/S 737 mmHg 97%
01:00 -1°C° 0 mm 5 m/S 737 mmHg 97%
02:00 -1°C° 0 mm 5 m/S 737 mmHg 97%
03:00 -1°C° 0 mm 5 m/S 736 mmHg 97%
04:00 -1°C° 0 mm 5 m/S 736 mmHg 97%
05:00 -1°C° 0 mm 5 m/S 736 mmHg 97%
06:00 -1°C° 0 mm 5 m/S 736 mmHg 97%
07:00 -1°C° 0 mm 5 m/S 735 mmHg 97%
08:00 0°C° 0 mm 5 m/S 735 mmHg 97%
09:00 0°C° 0 mm 5 m/S 735 mmHg 97%
10:00 0°C° 0 mm 4 m/S 735 mmHg 98%
11:00 0°C° 0 mm 4 m/S 735 mmHg 98%
12:00 0°C° 0 mm 4 m/S 734 mmHg 98%
13:00 0°C° 0 mm 4 m/S 734 mmHg 98%
14:00 +1°C° 0 mm 4 m/S 733 mmHg 98%
15:00 +1°C° 0.2 mm 4 m/S 733 mmHg 98%
16:00 +1°C° 0.2 mm 4 m/S 733 mmHg 98%
17:00 +1°C° 0.2 mm 4 m/S 732 mmHg 98%
18:00 +1°C° 0.3 mm 5 m/S 732 mmHg 98%
19:00 +1°C° 0.3 mm 5 m/S 731 mmHg 98%
20:00 +1°C° 0.3 mm 5 m/S 731 mmHg 97%
21:00 +1°C° 0.3 mm 5 m/S 730 mmHg 97%
22:00 +1°C° 0.3 mm 5 m/S 730 mmHg 97%
23:00 +1°C° 0.3 mm 5 m/S 730 mmHg 97%

25 Januar, Montag

Zeit Temperatur Niederschläge Wind Luftdruck Luftfeuchtigkeit
00:00 +1°C° 0.4 mm 5 m/S 730 mmHg 96%
01:00 +1°C° 0.4 mm 6 m/S 730 mmHg 96%
02:00 +1°C° 0.4 mm 6 m/S 730 mmHg 96%
03:00 -1°C° 0.1 mm 6 m/S 731 mmHg 94%
04:00 -1°C° 0.1 mm 6 m/S 731 mmHg 93%
05:00 -2°C° 0.1 mm 6 m/S 732 mmHg 91%
06:00 -2°C° 0 mm 6 m/S 732 mmHg 91%
07:00 -2°C° 0 mm 6 m/S 733 mmHg 91%
08:00 -2°C° 0 mm 6 m/S 734 mmHg 90%
09:00 -1°C° 0 mm 5 m/S 734 mmHg 89%
10:00 -1°C° 0 mm 5 m/S 735 mmHg 87%
11:00 -1°C° 0 mm 5 m/S 735 mmHg 86%
12:00 -1°C° 0 mm 5 m/S 735 mmHg 86%
13:00 -1°C° 0 mm 4 m/S 736 mmHg 86%
14:00 -1°C° 0 mm 4 m/S 736 mmHg 86%
15:00 -1°C° 0 mm 3 m/S 736 mmHg 87%
16:00 -1°C° 0 mm 3 m/S 736 mmHg 89%
17:00 -2°C° 0 mm 2 m/S 737 mmHg 90%
18:00 -2°C° 0 mm 2 m/S 736 mmHg 92%
19:00 -2°C° 0 mm 2 m/S 736 mmHg 93%
20:00 -2°C° 0 mm 2 m/S 736 mmHg 94%
21:00 -1°C° 0 mm 2 m/S 736 mmHg 94%
22:00 -1°C° 0 mm 3 m/S 735 mmHg 95%
23:00 -1°C° 0 mm 4 m/S 734 mmHg 95%
Mehr zeigen

Wir brauchen deine Erlaubnis

Meteoprog und unser Service Anbieter werden persönliche Daten aufbewahren, so wie Cookies, Geräte Bezeichnung oder ähnliche Technologien von deinem Gerät und Prozess, so wie Persönliche Daten Inhalte und Werbungen, genauso wie social Media und den Verkehr zu analysieren.

  • Aufbewahrung und/oder Zugang zu deiner Geräte Informationen.

    Cookies, Geräte Bezeichnung oder andere Informationen, können aufbewahrt oder Zugang zu deinem Gerät erhalten, für den Grund, der oben angegeben wird.

  • Personalisierte Werbung und Inhalte, Messungen, Einblick in das Publikum und Produkt Entwicklung.

    Werbungen und Inhalte können personalisiert werden, basierend auf ein Profil. Mehr Daten können besser personalisierte Werbungen und Inhalte hinzufügen. Werbung und Inhalte können gezeigt und gemessen werden. Einblicke über das Publikum, welche die Werbung gesehen haben und den Inhalt, können abgeleitet werden. So wie Daten können genutzt werden, um es zu verbessern oder die Benutzer Erfahrung zu verbessern das System und die Software.

Wenn du “Ich stimme zu” klickst, erlaubst du uns, die Cookies zu benutzen die Geräte Bezeichnung, den Web oder ähnliche Technologien zu benutzen. Deine Settings, können in deinem Gerät bei deinem Browser geändert werden.

Für den bestimmten Zweck, berechtigten Interessen beruhen darauf, mehr als auf den Inhalt. Du kannst mehr darüber in unseren Privaten und Cookie Politik lesen.